Theta_e
332 331 331 330 330 330 329 328 329 329 329 328 327 327 327 327 327 322 314 321 331 340 338 328 317 317 315 312 314 309 297 294 298 299 302 306 305 310 311 307 309 309 306 317 324
333 332 331 330 330 329 328 329 328 329 329 328 326 326 326 327 319 314 326 336 338 339 323 315 311 313 307 308 309 303 297 300 304 302 301 305 305 305 305 304 304 306 308 311 310
331 330 330 330 329 328 328 328 329 329 328 327 326 326 326 325 314 316 334 335 337 339 326 318 313 312 305 307 305 304 298 305 307 308 309 306 306 308 303 301 305 304 306 308 308
329 330 330 330 329 328 327 327 328 328 327 324 327 327 326 319 302 319 339 339 339 331 325 314 311 306 304 302 307 300 306 306 308 310 309 306 307 304 304 304 308 308 307 307 305
328 329 329 328 328 328 327 327 328 327 325 323 326 327 318 309 311 325 339 336 331 324 314 311 306 304 301 303 304 301 304 308 308 307 306 308 305 303 304 307 308 309 309 307 307
328 327 327 326 326 326 326 326 327 326 324 323 326 326 316 303 317 323 325 319 318 316 312 312 307 308 304 303 301 304 304 304 305 305 305 304 303 304 305 307 306 307 306 306 306
327 326 326 325 325 324 325 325 325 324 323 324 326 320 310 305 315 316 319 315 317 316 313 314 312 306 305 302 308 305 300 302 303 304 303 304 299 300 306 305 305 304 303 304 306
326 325 325 324 324 324 324 324 323 323 323 325 325 316 302 315 314 314 315 314 316 316 317 317 315 310 306 307 305 299 298 293 301 303 302 301 292 302 304 302 302 303 302 303 307
325 324 324 323 323 323 323 323 326 326 322 324 316 313 303 319 309 310 309 310 313 315 317 318 313 305 305 298 294 295 290 293 298 303 301 298 293 301 303 303 301 301 301 302 305
324 323 322 322 322 322 322 323 320 317 315 312 314 303 306 304 308 309 308 311 308 309 311 310 305 299 298 295 288 292 291 293 293 299 300 297 296 299 302 302 301 301 302 302 305
323 322 321 321 321 321 317 307 301 302 301 299 300 301 304 307 308 306 309 307 307 304 298 304 298 294 298 299 298 295 293 292 296 299 297 296 296 298 301 301 300 300 299 302 304
322 321 321 321 320 319 310 302 300 300 293 303 305 304 307 305 301 305 308 300 301 295 298 295 294 301 303 301 298 295 292 292 295 299 296 295 295 297 298 300 301 300 300 300 300
322 321 320 320 319 313 307 305 308 304 293 303 305 305 305 306 303 301 304 303 298 295 295 291 296 302 300 297 296 294 291 291 291 295 295 293 292 292 296 300 301 298 299 299 298
320 320 320 319 313 311 306 312 307 306 291 298 302 304 307 308 302 306 305 302 298 294 296 294 299 298 296 295 296 290 296 294 292 289 284 291 282 290 292 293 296 293 293 292 293
320 319 319 319 308 308 310 311 307 301 284 299 300 307 303 300 300 301 305 301 295 295 293 290 293 293 292 293 296 291 295 292 291 287 284 286 282 287 291 291 292 290 290 290 291
319 319 318 314 310 310 312 313 306 292 287 295 300 299 297 298 299 301 299 300 299 294 293 292 297 295 292 295 294 295 291 290 288 285 277 283 282 281 285 288 288 290 289 290 291
318 318 317 318 305 311 312 305 290 287 298 293 295 298 295 294 295 295 293 290 288 284 284 290 292 293 294 289 291 289 284 276 276 277 277 285 283 284 287 290 290 290 291 293 293
317 317 316 314 310 309 306 295 285 294 293 297 296 295 290 292 292 293 290 287 292 289 284 282 281 289 293 288 285 285 283 276 273 274 276 284 278 284 289 291 291 293 293 294 294
315 310 310 308 310 309 299 286 287 292 295 293 292 287 288 292 290 290 288 288 290 290 283 282 282 292 293 292 288 284 280 286 278 280 276 278 283 287 291 287 288 290 291 291 293
306 304 302 309 309 303 293 290 291 296 296 294 286 289 285 288 287 287 286 291 291 292 290 285 280 289 292 292 290 285 288 280 278 273 271 276 277 279 286 286 288 288 290 292 294
305 296 302 308 304 295 286 289 295 298 297 292 289 288 288 286 287 285 287 289 291 290 291 286 283 283 288 284 283 284 282 282 283 280 275 273 275 286 286 287 287 288 291 292 293
301 291 303 303 290 290 287 293 297 295 296 294 293 292 289 288 286 286 286 288 293 292 286 287 283 278 282 288 289 284 281 281 274 271 278 278 278 288 286 287 287 287 289 290 292
297 294 302 300 283 285 291 294 295 294 293 292 290 292 292 287 283 288 289 294 294 291 287 287 279 271 275 279 283 282 283 283 281 279 271 272 275 290 290 289 288 286 287 289 289
295 286 293 294 292 287 287 288 289 294 293 293 292 292 289 286 288 286 287 292 294 293 295 289 280 276 273 276 278 278 281 281 280 274 272 275 277 284 287 287 286 286 287 287 289
296 290 293 281 284 289 286 287 285 285 291 291 288 289 286 278 283 283 286 287 290 292 290 285 278 279 281 282 282 281 281 281 278 279 276 278 278 281 284 284 283 286 288 289 289
289 288 289 288 289 285 284 283 285 287 286 285 286 286 285 281 284 282 285 284 283 285 284 285 278 279 278 282 281 279 281 282 281 281 280 281 279 286 286 283 285 286 287 288 289
295 297 291 289 287 280 280 285 286 286 287 288 286 284 282 284 286 287 288 287 286 284 282 281 280 276 273 279 278 272 277 277 278 280 279 274 279 282 283 285 285 285 288 288 289
Wind_Speed
13 14 17 18 19 18 18 20 20 19 19 19 19 17 15 14 16 3 3 2 1 1 5 6 4 4 3 1 0 3 5 2 4 5 3 7 4 3 1 1 4 2 1 7 7
14 14 16 18 17 18 18 19 21 20 19 18 18 16 14 12 3 6 2 2 3 4 3 3 3 3 3 0 1 4 3 2 2 1 1 4 5 5 3 6 4 5 5 4 4
15 16 16 17 18 19 20 19 20 20 20 17 15 13 11 6 1 1 3 2 3 4 4 6 5 2 2 1 2 3 4 1 2 1 1 4 7 5 4 4 5 5 6 1 4
16 16 16 17 18 19 19 20 20 20 19 17 14 12 8 2 3 2 4 4 4 5 5 4 4 2 2 3 4 1 5 4 6 2 2 2 4 8 6 8 8 7 5 2 5
15 15 17 18 20 20 20 19 19 20 17 15 12 11 4 3 2 4 4 6 3 4 4 4 4 3 3 4 6 3 4 8 7 7 5 4 7 7 9 11 10 9 3 3 7
15 17 18 19 20 22 22 20 19 19 14 12 10 10 2 3 3 6 5 4 3 3 5 2 3 4 3 4 1 4 4 7 7 11 7 9 8 4 9 7 4 5 5 9 8
16 18 19 21 23 24 23 22 18 16 11 8 8 4 2 3 3 2 3 1 2 3 4 4 4 5 5 6 3 4 6 8 11 11 8 4 4 9 14 7 9 7 7 7 3
17 18 20 21 23 25 25 23 19 12 7 7 5 2 2 2 3 3 4 4 4 3 2 3 3 2 2 3 7 4 1 3 7 4 1 5 8 12 7 7 9 8 8 8 7
17 18 20 21 23 25 28 26 15 2 4 5 2 0 1 1 3 6 5 4 2 1 2 3 1 3 5 1 5 3 3 5 7 5 3 4 7 9 4 5 8 8 9 7 6
16 17 19 21 23 25 28 20 6 2 2 3 4 4 5 3 4 6 4 3 3 5 3 1 0 1 4 4 3 6 6 3 6 4 7 8 15 7 10 7 9 9 9 7 7
16 18 20 21 22 24 15 6 10 9 10 3 6 3 3 8 3 3 2 5 3 2 2 4 2 5 9 6 7 5 5 8 11 9 11 14 17 9 8 6 9 9 4 8 9
15 18 21 21 23 19 5 7 3 4 8 7 5 4 5 2 2 0 4 0 1 4 5 5 6 13 7 6 5 5 9 11 10 8 8 11 20 8 7 9 9 9 9 7 7
15 17 20 23 23 4 8 6 5 1 2 6 2 2 2 3 3 2 5 5 3 3 5 4 8 9 3 3 7 5 7 7 12 8 3 8 18 3 5 4 5 10 7 7 8
14 16 19 24 6 7 4 3 4 4 3 1 1 1 2 2 0 0 1 2 5 4 5 6 6 6 8 6 7 14 5 6 9 8 7 6 18 11 7 10 4 7 9 8 9
14 16 18 11 3 4 5 7 2 4 4 1 1 1 3 1 3 4 2 2 4 6 2 7 9 12 9 8 5 9 4 4 4 7 7 9 7 13 13 15 5 7 9 9 9
13 14 17 3 3 4 8 9 4 3 2 2 3 1 1 3 3 3 1 3 5 3 5 7 5 3 5 7 9 9 10 7 4 1 4 3 4 4 5 5 7 9 9 9 10
14 13 10 6 4 10 10 4 5 4 2 3 2 6 6 5 6 2 3 5 2 8 4 5 7 7 13 7 6 12 9 6 5 2 7 11 13 11 3 8 9 10 9 11 13
14 12 5 2 6 7 5 5 3 3 4 6 6 8 3 6 5 5 5 5 5 2 4 5 6 4 9 5 4 3 3 4 9 12 15 8 8 6 4 6 5 7 5 5 4
13 3 2 5 6 4 5 5 2 4 5 8 6 4 3 7 7 10 8 3 5 8 1 5 6 18 17 7 3 5 3 7 5 9 10 6 6 2 8 13 14 13 12 12 13
3 3 3 7 6 5 6 3 4 5 5 5 4 6 6 9 8 10 4 8 4 11 5 5 11 4 6 6 5 4 5 7 2 4 5 5 5 4 4 10 13 12 9 7 4
2 4 5 7 4 5 3 0 5 10 10 7 5 5 5 6 4 4 6 5 5 6 6 4 2 6 3 4 10 10 8 3 1 3 4 5 5 6 9 8 8 7 7 2 5
3 3 5 4 5 1 1 2 2 6 8 4 3 4 2 6 3 3 4 2 3 2 4 3 2 4 7 13 10 3 1 2 3 7 3 4 5 2 4 2 6 7 6 4 3
3 1 5 6 3 4 6 5 8 8 6 5 5 6 6 4 5 2 4 2 2 3 1 4 2 4 10 7 6 3 4 3 3 2 7 6 6 1 9 13 16 9 4 3 2
3 3 5 5 2 3 4 4 3 6 3 5 5 6 5 5 4 6 7 5 6 1 3 2 3 8 9 12 5 15 18 7 5 4 5 7 10 12 6 10 10 6 1 2 4
3 1 4 2 5 4 4 3 3 4 1 3 4 2 6 3 5 5 5 8 7 3 3 5 5 6 13 13 16 18 21 19 12 15 9 15 11 14 11 11 7 4 1 5 5
3 4 4 2 1 2 1 3 4 4 1 2 4 6 6 4 5 10 6 3 5 4 4 2 5 4 17 16 16 19 18 17 11 11 12 16 19 13 14 4 3 6 2 4 6
3 1 5 4 3 2 4 4 2 3 3 2 6 6 5 8 9 12 6 6 9 11 12 7 6 2 17 7 6 8 9 7 5 9 8 8 10 8 3 2 3 4 4 6 7
Wind_Direction
339 342 346 345 341 336 333 333 333 328 326 328 326 324 324 326 315 126 60 304 257 318 315 286 278 260 345 271 32 49 56 306 321 17 348 3 47 336 208 242 305 242 202 181 197
349 346 343 340 334 331 330 330 331 326 327 329 330 330 329 332 314 64 267 301 5 6 323 286 343 229 343 219 321 95 105 259 327 138 315 327 31 318 0 311 304 338 10 105 132
348 345 339 333 330 329 329 329 328 324 327 331 334 334 325 322 69 23 226 269 318 310 262 298 307 303 291 176 215 209 196 273 264 155 96 324 325 322 349 264 241 262 280 339 22
347 339 334 329 327 327 329 328 325 322 326 330 334 337 330 245 153 183 223 252 274 289 303 310 324 307 289 301 235 177 264 272 283 290 173 254 305 312 273 246 261 278 247 336 332
344 340 336 333 329 326 326 324 321 319 325 324 332 346 354 61 77 188 215 244 260 271 288 1 349 333 309 337 349 250 272 300 305 298 253 253 258 241 261 265 275 292 228 269 280
345 344 340 336 330 327 327 320 320 315 321 317 328 330 18 90 303 148 222 255 344 329 321 351 328 319 283 295 292 291 317 296 289 273 250 234 244 173 262 218 251 207 251 245 265
348 344 340 337 333 328 323 317 314 305 309 306 328 321 34 126 6 64 275 147 352 0 352 15 7 45 331 312 312 281 310 307 267 250 228 143 300 236 257 212 214 227 255 264 133
346 343 340 336 333 329 324 319 315 289 291 295 324 335 92 318 335 340 311 270 215 266 219 305 325 285 208 281 335 277 59 320 294 86 238 116 256 274 271 150 198 222 256 264 114
345 341 338 335 331 329 325 325 319 294 220 290 339 50 71 357 40 328 2 352 306 240 256 296 55 233 337 117 346 297 241 267 326 231 144 170 252 246 241 202 214 230 248 255 133
343 338 335 334 333 331 327 329 49 43 169 244 274 57 18 21 358 325 290 318 322 338 299 263 264 17 346 70 260 293 299 284 270 283 307 265 259 257 263 256 248 253 252 132 135
341 337 334 333 334 332 338 12 11 360 29 348 285 293 344 309 248 294 351 352 262 290 243 222 101 238 244 226 232 279 298 297 281 288 290 279 274 288 267 282 278 261 199 149 112
342 337 333 331 330 333 351 64 110 204 324 301 276 260 245 99 286 88 13 247 209 274 316 355 238 242 223 248 280 298 286 275 284 266 287 304 288 283 279 272 261 239 150 133 98
341 337 331 328 323 33 83 125 193 131 216 291 254 321 285 10 24 358 32 331 247 292 296 212 253 320 267 299 283 247 255 276 278 320 233 290 287 323 333 343 42 53 90 73 77
341 335 333 331 43 330 68 2 113 98 54 193 198 209 262 266 272 19 36 99 331 291 297 265 301 0 331 288 272 284 263 326 341 355 299 73 294 289 273 275 89 80 65 58 50
339 335 335 341 274 10 308 317 199 58 24 108 131 237 266 236 213 236 179 90 222 251 317 259 330 301 301 287 287 282 340 290 281 298 314 296 256 289 298 293 159 79 67 54 45
335 336 339 9 312 311 316 305 80 28 298 94 143 265 349 239 241 129 228 8 258 282 209 235 288 319 351 2 11 339 354 315 295 224 274 229 259 338 3 293 73 65 50 50 41
328 330 330 310 312 315 322 20 32 117 133 32 46 14 351 277 303 21 43 10 344 328 3 308 262 107 29 359 8 31 15 324 321 343 259 345 322 288 119 59 74 66 42 21 14
318 320 297 344 327 329 8 41 126 42 9 14 358 318 289 4 15 11 11 334 5 45 338 354 343 31 9 69 312 307 156 173 279 293 292 311 268 306 95 90 75 55 45 41 18
315 343 347 317 331 23 51 54 313 4 351 349 335 7 337 39 359 15 354 280 31 27 29 334 256 339 347 14 45 308 235 237 252 274 280 234 240 87 36 20 19 29 25 14 3
346 357 353 314 346 38 68 263 83 37 1 356 19 29 359 347 359 17 324 25 23 27 18 343 304 31 11 326 268 235 305 318 304 305 259 267 273 203 29 0 358 358 332 279 247
9 46 276 330 48 48 126 204 73 46 35 22 15 326 343 6 9 339 276 47 24 352 6 349 224 310 342 24 313 313 304 282 84 268 291 303 264 125 140 198 229 252 256 318 28
11 44 287 17 42 16 39 60 22 26 25 331 321 334 326 2 313 338 293 67 350 20 3 18 275 279 273 283 278 246 347 33 140 285 257 292 284 279 109 304 315 350 320 30 24
19 157 315 72 79 358 333 34 53 21 20 30 340 27 14 349 320 289 345 154 99 63 50 338 328 335 320 335 355 357 296 254 199 160 219 251 276 41 7 348 286 274 337 304 318
55 36 344 36 48 73 28 1 16 22 47 17 342 5 359 344 311 296 307 304 352 292 152 33 223 183 249 253 259 296 292 248 201 217 253 233 281 278 273 238 259 283 246 328 2
41 77 170 359 19 54 26 7 348 332 88 25 328 268 316 302 306 267 320 323 328 309 74 151 234 242 254 265 278 275 279 286 225 240 236 274 252 264 269 271 267 263 300 12 340
103 95 6 86 44 31 301 221 225 269 46 327 281 348 351 300 269 303 291 250 243 330 20 252 266 288 282 276 267 276 279 267 255 244 241 258 267 263 258 210 332 316 354 354 321
325 23 102 161 164 111 222 213 325 25 301 285 297 301 284 285 291 286 232 225 244 266 267 210 257 225 276 270 306 308 259 254 264 269 236 248 267 274 151 104 308 343 11 343 326